STARLINK-35445

Last updated on Mon Oct 20 2025 00:02:08 GMT+0000 (Coordinated Universal Time)

1 65880U 25223AC 25292.25002315 -.01904507 00000+0 -21763-1 0 9996 2 65880 53.1599 234.9179 0001249 91.6480 45.8687 15.64687171 3580
UTC large
Height (km)
Speed (km/s)
/
Latitude / Longitude
Inclination (degrees)
Orbital Period (minutes)
Azimuth
Elevation
Range (km)
Doppler Factor

Next 0 passes for location: London (51.5072 / 0.1276)

Sorry there are no passes over London.